Starlink 4716

operational
NORAD ID: 53706 Int'l Des: 2022-107 Owner: SPXS Country: US Constellation: starlink
LEOCIRCULAR

Starlink 4716について

説明を読み込み中...

リアルタイム位置

3D地球を読み込み中...

次回通過

高度履歴

Altitude vs Time

uPlot chart will show altitude changes over time

軌道要素

1 53706U 22107G 26035.37523536 .00000262 00000-0 34537-4 0 9999
2 53706 53.2181 33.7344 0001216 90.1539 269.9592 15.08848148189821
Epoch: Feb 4, 2026 • Age: 21 hours

現在のステータス

高度 545.4 km
速度 7.60 km/s
衛星直下点 53.24°N, 101.27°W
打ち上げ日 Sep 5, 2022
運用期間 3.4 years
タイプ internet

技術仕様

分類 Payload
質量 305.00 kg
乾燥質量 290.00 kg
総質量 305.00 kg
長さ 0.20 m
直径 2.80 m
スパン 9.00 m
形状 Box + pan
製造者 SPXS
バスタイプ Starlink
フェーズステータス In Orbit
所有者/国 SPXS/US

大規模コンステレーション

Loading constellations...